Temperature
8 8 7 7 7 7 7 7 7 7 7 7 7 7 7 7 6 6 6 6 6 6 6 5 5 5 5 5 4 4 3 3 3 3 3 3 3 3 3 3 3 3 3
7 7 7 7 7 7 6 6 6 6 6 6 6 6 6 6 6 6 6 5 5 5 5 5 5 5 4 4 4 4 3 3 3 3 3 3 3 3 3 3 3 3 2
6 6 6 6 6 6 6 6 6 6 6 6 6 6 5 5 5 5 5 5 5 5 5 4 4 4 4 4 3 3 3 3 2 2 2 2 2 2 2 2 2 2 2
6 6 5 5 5 5 5 5 5 5 5 5 5 5 5 5 5 5 5 4 4 4 4 4 4 3 3 3 3 3 3 2 2 2 2 2 2 2 2 2 2 2 2
5 5 5 5 5 5 5 5 5 5 5 5 4 4 4 4 4 4 4 4 4 4 3 3 3 3 3 2 2 2 2 2 2 1 1 1 1 1 1 1 1 1 1
4 4 4 4 4 4 4 4 4 4 4 4 4 4 4 4 4 3 3 3 3 3 3 3 3 3 2 2 2 2 2 1 1 1 1 1 1 0 0 0 0 -0 0
4 4 4 4 4 4 4 4 4 4 4 3 3 3 3 3 3 3 2 2 2 2 2 2 2 2 2 2 2 2 1 1 1 0 0 0 0 -0 -0 -0 -1 -1 -1
3 3 3 3 3 3 3 3 3 3 3 3 3 3 3 2 2 2 2 2 2 2 2 2 1 1 1 1 1 1 1 1 0 0 -0 -0 -0 -1 -1 -1 -1 -1 -1
2 3 2 2 2 2 3 2 2 2 2 2 2 2 2 2 2 1 1 1 1 1 1 1 1 1 1 0 0 0 0 0 0 -0 -0 -1 -1 -1 -1 -1 -2 -2 -2
2 2 2 2 2 2 2 2 2 1 1 1 1 1 1 1 1 1 0 0 0 0 0 0 0 0 -0 -0 -0 -0 -0 -0 -0 -1 -1 -1 -1 -1 -2 -2 -2 -2 -2
1 1 1 1 1 1 1 1 1 1 1 1 1 1 0 0 0 0 -0 -0 -1 -1 -0 -0 -0 -0 -0 -1 -1 -1 -1 -1 -1 -1 -1 -1 -1 -2 -2 -2 -2 -3 -3
-0 0 0 0 0 0 -0 -0 -0 -0 0 -0 -0 -0 -0 -0 -1 -1 -1 -1 -1 -1 -1 -1 -1 -1 -1 -1 -1 -1 -2 -2 -2 -2 -2 -2 -2 -2 -2 -2 -3 -3 -3
-1 -1 -1 -1 -1 -1 -1 -1 -1 -1 -1 -1 -1 -1 -1 -1 -1 -1 -1 -1 -1 -1 -1 -1 -1 -1 -1 -1 -2 -2 -2 -2 -2 -2 -2 -2 -2 -3 -3 -3 -3 -3 -3
-1 -1 -1 -1 -1 -1 -1 -1 -1 -1 -2 -2 -2 -2 -2 -2 -2 -2 -2 -2 -2 -2 -2 -2 -2 -2 -2 -2 -2 -2 -2 -2 -3 -3 -3 -3 -3 -3 -3 -3 -3 -3 -3
-2 -2 -2 -2 -2 -2 -2 -2 -2 -2 -2 -2 -2 -2 -2 -2 -2 -2 -2 -2 -2 -2 -3 -2 -2 -2 -2 -2 -2 -3 -3 -3 -3 -3 -3 -3 -3 -3 -3 -3 -3 -3 -4
-3 -3 -3 -3 -3 -3 -2 -3 -3 -3 -3 -3 -3 -3 -3 -3 -3 -3 -3 -3 -3 -3 -3 -3 -3 -3 -3 -3 -3 -3 -3 -3 -3 -3 -3 -4 -4 -4 -4 -4 -4 -4 -4
-3 -3 -3 -3 -3 -3 -3 -3 -3 -3 -3 -3 -3 -3 -3 -3 -3 -3 -3 -3 -3 -3 -3 -3 -3 -3 -3 -4 -4 -4 -3 -4 -4 -4 -4 -4 -4 -4 -4 -4 -4 -4 -5
-4 -4 -3 -3 -3 -4 -4 -4 -4 -4 -3 -3 -3 -4 -3 -4 -4 -4 -4 -4 -4 -4 -4 -4 -4 -4 -4 -4 -4 -4 -4 -4 -4 -4 -4 -4 -4 -4 -4 -4 -5 -5 -5
-4 -4 -4 -4 -4 -4 -4 -4 -4 -4 -4 -4 -4 -4 -4 -4 -4 -4 -4 -4 -4 -4 -4 -4 -4 -4 -4 -4 -4 -4 -5 -4 -4 -4 -5 -5 -5 -5 -5 -5 -5 -5 -5
-4 -4 -4 -4 -4 -4 -4 -4 -4 -4 -4 -4 -4 -4 -4 -4 -4 -4 -4 -4 -4 -5 -5 -5 -5 -5 -5 -5 -5 -5 -5 -5 -5 -5 -5 -5 -5 -5 -5 -5 -5 -6 -6
-5 -5 -5 -5 -5 -5 -5 -5 -5 -5 -5 -5 -5 -5 -5 -5 -5 -5 -5 -5 -5 -5 -5 -5 -5 -5 -5 -5 -5 -5 -5 -5 -5 -5 -5 -5 -5 -5 -5 -6 -6 -6 -6
-5 -5 -5 -5 -5 -5 -5 -5 -5 -5 -5 -5 -5 -5 -5 -5 -5 -5 -5 -5 -5 -5 -6 -6 -5 -5 -5 -5 -6 -5 -5 -5 -5 -5 -5 -5 -5 -5 -6 -6 -6 -6 -6
-5 -5 -5 -5 -5 -5 -5 -5 -5 -5 -6 -6 -6 -6 -6 -6 -6 -6 -6 -6 -6 -6 -6 -6 -6 -6 -6 -6 -6 -6 -6 -6 -5 -5 -5 -6 -6 -6 -6 -6 -6 -6 -6
-6 -6 -6 -6 -6 -6 -6 -6 -6 -6 -6 -6 -6 -6 -6 -6 -6 -6 -6 -6 -6 -6 -6 -6 -6 -6 -6 -6 -6 -6 -6 -6 -6 -6 -6 -6 -6 -6 -6 -6 -6 -6 -6
-6 -6 -6 -6 -6 -6 -6 -6 -6 -6 -7 -7 -7 -7 -7 -7 -7 -7 -7 -6 -6 -6 -6 -6 -6 -6 -6 -6 -6 -6 -6 -6 -6 -6 -6 -6 -6 -6 -6 -6 -6 -6 -6
-7 -7 -7 -7 -7 -7 -7 -7 -7 -7 -7 -7 -7 -7 -7 -7 -7 -7 -7 -7 -7 -7 -6 -6 -6 -6 -6 -6 -6 -6 -6 -6 -6 -6 -6 -6 -6 -6 -6 -6 -6 -6 -6
Wind_Speed
4 4 4 3 4 4 3 3 2 2 2 3 2 2 2 2 1 1 1 2 2 1 1 1 2 1 1 1 1 1 2 2 5 5 4 4 4 5 9 11 11 11 12
3 4 4 3 4 4 3 2 3 2 2 2 2 2 2 2 2 2 2 2 2 2 2 2 2 1 2 1 1 2 2 2 3 6 5 4 5 5 6 7 9 10 11
4 4 4 3 3 3 3 2 2 2 2 2 2 1 1 2 2 2 2 2 2 3 3 3 3 2 2 2 2 2 2 2 2 4 5 4 4 4 5 6 7 7 10
4 4 4 3 3 3 3 3 2 2 2 1 1 1 1 1 1 2 2 2 2 2 2 2 3 3 3 3 2 2 2 2 3 3 4 5 4 4 4 6 7 6 6
4 4 3 2 3 3 3 2 2 2 2 1 1 1 1 0 1 1 2 2 2 2 2 2 2 3 4 3 3 2 2 2 3 3 4 4 5 5 5 5 7 8 6
3 3 3 3 3 3 3 3 3 2 2 1 1 1 0 1 2 2 1 1 1 2 2 2 2 3 4 4 4 4 3 3 4 4 4 5 6 6 5 6 6 7 6
3 3 3 3 3 3 3 3 3 2 1 1 1 1 1 2 3 3 2 1 1 2 2 2 3 3 4 2 3 4 4 5 5 4 5 6 6 6 6 6 6 6 7
3 3 3 3 3 3 3 3 2 2 1 1 0 0 1 2 3 3 3 1 1 2 2 2 3 3 3 3 2 3 3 4 5 4 4 6 6 5 5 5 6 6 6
3 2 2 3 4 3 3 2 2 2 1 0 0 0 1 2 4 4 3 1 1 2 2 2 2 3 5 5 3 4 5 4 6 6 7 7 8 8 7 4 4 5 7
2 2 2 3 3 3 3 2 2 2 1 1 1 1 1 2 3 4 3 1 2 3 2 2 4 4 6 6 3 3 5 5 4 5 5 6 6 6 6 3 3 4 5
1 2 2 2 3 3 3 2 2 2 2 1 1 1 1 2 3 4 4 1 2 3 3 3 3 6 7 6 5 3 6 5 3 3 4 4 3 3 4 4 3 4 5
2 3 2 2 2 3 3 2 2 2 2 1 1 1 2 2 3 4 5 5 4 3 3 3 4 6 7 7 5 6 7 5 3 3 3 4 4 4 4 5 6 5 6
3 3 2 3 2 2 3 2 2 1 1 0 0 1 2 2 3 4 5 5 6 4 3 5 5 6 6 5 6 6 5 3 2 3 4 4 4 4 4 5 5 5 6
3 2 2 3 2 2 1 1 1 1 1 0 1 1 2 3 3 3 3 3 4 4 4 4 5 5 4 4 5 4 3 2 3 3 4 4 3 3 3 3 4 4 5
2 2 2 2 2 2 1 1 1 1 2 1 2 2 2 3 4 6 5 4 3 4 3 2 2 2 3 3 3 3 2 2 3 3 3 4 4 4 4 3 3 3 4
2 2 2 2 1 1 1 1 1 1 2 2 3 3 3 5 7 8 8 8 8 6 3 2 2 3 3 3 3 3 3 3 3 3 3 4 4 4 4 4 3 3 4
2 2 2 2 2 1 1 1 1 2 3 3 4 4 5 6 7 7 7 7 6 4 2 2 3 3 3 3 3 3 4 4 3 4 4 4 3 4 4 4 4 4 4
2 2 2 2 2 2 1 1 1 1 2 3 4 5 6 6 6 6 6 4 3 3 2 2 3 3 3 3 3 3 4 4 3 4 3 3 3 3 4 4 4 4 5
1 1 1 2 2 2 1 1 1 0 1 2 3 4 6 6 6 6 6 2 2 3 3 3 3 3 3 3 3 4 4 4 4 3 3 3 3 3 3 4 4 6 5
1 1 2 2 2 1 1 1 0 0 1 2 2 3 4 4 3 4 4 3 3 3 3 3 3 4 4 3 4 4 4 4 3 3 3 3 3 2 3 4 4 4 5
1 1 1 1 1 1 1 1 0 0 1 2 2 4 5 3 3 3 3 3 3 3 4 4 4 4 4 3 3 3 4 4 3 3 3 3 2 3 3 3 4 4 4
1 1 1 1 1 1 1 1 1 1 1 2 3 3 5 3 2 3 3 3 3 3 4 4 4 4 4 4 4 3 4 4 4 3 3 3 3 3 3 3 4 4 4
1 1 1 1 1 1 0 1 1 1 2 2 3 3 3 3 3 3 4 4 4 4 5 4 4 5 5 5 5 4 4 4 4 4 3 3 3 3 3 3 4 4 4
2 2 2 1 1 1 1 1 1 2 2 2 3 3 3 3 3 4 4 4 4 5 5 5 5 6 7 7 6 6 6 6 6 5 4 3 3 3 3 3 4 4 4
2 2 2 2 2 2 2 2 2 2 3 3 3 3 3 3 3 4 4 4 5 5 6 6 6 6 7 8 8 7 7 7 7 5 4 3 3 3 3 3 3 4 4
2 2 2 2 2 2 2 2 2 3 3 3 3 3 3 4 4 4 4 4 4 5 6 6 7 8 9 8 8 8 8 8 7 6 4 2 2 2 2 3 4 4 4
Wind_Direction
146 141 136 135 130 130 135 143 135 128 138 149 150 148 151 149 146 153 183 188 175 199 219 235 257 245 236 232 225 223 232 233 267 287 289 303 304 312 323 325 323 322 322
143 138 134 128 126 129 134 134 124 124 135 143 144 160 173 176 183 189 204 213 207 218 238 245 261 270 263 244 230 242 246 241 258 288 301 309 303 305 311 315 322 322 320
127 125 123 127 134 138 136 125 123 122 116 119 135 171 202 201 204 207 206 220 227 226 227 238 251 245 260 259 248 250 255 268 261 278 294 303 304 310 313 311 313 317 321
127 125 128 139 144 139 126 123 125 125 121 120 137 164 198 222 217 207 202 222 241 246 236 237 241 235 241 246 252 249 256 276 284 285 291 302 303 307 313 317 321 319 317
129 129 135 135 130 122 117 116 111 110 110 111 100 80 67 202 219 203 207 226 240 270 270 255 256 258 261 259 266 259 257 272 287 291 297 306 312 322 320 316 314 316 309
128 132 125 120 122 123 123 117 103 93 86 86 90 98 16 305 292 281 262 232 247 261 279 288 288 283 283 283 287 280 269 273 281 288 295 299 301 301 306 312 314 322 316
127 127 125 123 119 116 117 111 107 96 84 77 48 52 332 303 302 296 295 299 263 268 268 277 295 298 306 290 301 310 302 296 286 274 278 283 290 293 301 306 306 305 296
122 122 124 125 125 121 118 117 116 118 110 79 23 354 346 314 319 319 318 343 295 278 266 257 264 277 287 293 294 300 296 296 296 285 264 272 278 285 282 286 289 297 290
120 128 134 135 136 134 131 126 124 121 104 84 99 44 350 315 317 323 332 334 301 293 286 275 270 274 288 291 293 293 301 303 310 301 297 302 303 306 313 317 316 316 310
136 137 132 134 138 142 143 139 128 126 120 91 25 15 322 307 319 325 336 312 300 301 300 290 286 289 294 295 285 283 294 299 305 313 318 318 319 317 319 312 291 298 305
122 115 114 122 128 131 123 123 126 120 105 92 53 353 332 324 327 324 328 323 279 291 298 301 297 300 298 297 294 277 282 295 297 297 302 309 318 322 323 322 301 276 285
105 107 110 108 110 112 113 108 114 122 114 94 59 357 339 329 331 327 328 321 310 290 287 288 293 304 307 308 308 304 305 310 302 301 304 309 313 311 311 316 310 296 277
103 105 107 98 95 111 124 123 110 110 115 65 355 328 328 329 326 326 325 321 314 304 284 286 296 306 309 309 306 311 321 318 307 304 302 299 294 296 309 317 320 321 310
120 121 118 111 101 92 103 121 132 148 164 238 289 307 314 317 314 315 321 320 316 310 300 300 302 307 314 314 315 319 319 296 295 290 295 297 300 308 313 313 315 325 321
128 131 124 121 125 113 96 118 156 219 216 244 254 261 284 296 298 310 315 309 305 293 302 301 316 321 325 321 318 313 308 308 306 300 298 303 309 315 314 315 311 317 316
140 144 143 138 136 130 114 50 11 325 320 322 308 298 296 296 306 310 310 309 308 304 304 295 300 304 303 307 310 312 310 310 306 304 299 297 302 309 312 317 315 316 314
162 166 156 152 153 152 148 148 338 354 359 351 339 328 322 317 317 317 315 314 316 324 318 301 295 296 299 300 299 297 298 302 302 297 296 297 299 303 307 314 319 316 311
165 181 170 167 169 171 178 198 229 288 327 332 340 339 335 333 332 334 334 336 340 356 342 316 305 300 297 296 295 296 298 304 302 298 295 297 299 302 308 312 313 312 311
153 165 162 159 166 172 171 173 192 273 314 320 333 342 352 350 351 353 357 355 336 331 326 318 312 305 298 294 294 293 292 293 294 295 295 294 295 300 306 309 311 313 315
136 156 156 150 150 154 152 150 163 318 322 321 322 321 328 339 344 346 351 341 331 321 316 312 311 309 302 294 293 292 293 294 295 292 291 293 294 295 301 308 309 309 309
133 147 135 124 132 148 159 177 215 254 285 298 301 309 324 330 325 324 326 324 317 312 310 311 311 313 312 310 305 299 296 297 298 298 298 300 304 306 306 304 303 306 306
153 155 153 159 162 167 181 195 216 251 286 296 303 314 327 330 317 314 313 312 313 310 310 308 307 310 309 306 302 299 298 298 298 301 302 306 304 301 302 302 306 308 309
161 169 170 175 180 206 231 223 237 262 275 283 293 304 310 309 307 305 305 308 313 314 316 315 310 310 313 310 303 297 292 294 296 293 294 297 298 297 296 299 302 305 306
177 182 186 193 194 199 216 236 251 264 271 279 286 291 293 292 293 297 302 307 311 314 315 313 307 305 308 312 311 305 298 298 300 293 282 280 288 294 296 299 300 299 301
186 191 198 202 207 217 229 246 259 265 273 279 283 287 288 289 290 296 302 305 306 307 309 311 311 310 310 309 308 307 306 303 300 299 293 288 287 290 295 300 302 304 305
196 200 207 210 216 223 232 245 257 263 269 277 281 283 285 287 290 294 298 301 305 306 307 311 309 308 307 309 310 309 308 307 303 299 300 299 289 293 298 300 303 308 310
Height
1501 1503 1505 1507 1509 1511 1513 1515 1516 1518 1519 1519 1520 1521 1521 1522 1522 1522 1522 1523 1522 1522 1521 1521 1521 1520 1519 1518 1518 1517 1517 1515 1512 1509 1508 1506 1504 1502 1500 1497 1494 1491 1488
1499 1501 1503 1504 1506 1508 1510 1512 1513 1515 1516 1516 1517 1518 1518 1519 1519 1519 1519 1519 1519 1519 1518 1518 1517 1516 1515 1515 1514 1513 1513 1512 1510 1506 1504 1502 1500 1498 1495 1493 1490 1487 1484
1496 1498 1500 1502 1504 1505 1507 1508 1510 1511 1512 1513 1514 1515 1515 1515 1515 1516 1516 1515 1515 1515 1514 1514 1513 1513 1512 1511 1510 1509 1508 1508 1506 1504 1500 1499 1497 1494 1491 1489 1486 1483 1479
1494 1495 1497 1499 1501 1503 1504 1506 1507 1509 1510 1510 1511 1511 1512 1512 1512 1512 1512 1512 1511 1511 1510 1510 1510 1509 1508 1507 1507 1506 1505 1504 1503 1500 1497 1495 1493 1490 1488 1484 1481 1478 1475
1491 1493 1495 1497 1498 1500 1502 1503 1504 1506 1507 1507 1508 1508 1508 1509 1509 1508 1508 1508 1507 1507 1506 1506 1506 1505 1505 1504 1503 1502 1502 1500 1499 1497 1494 1491 1489 1486 1484 1481 1477 1473 1470
1488 1490 1492 1494 1495 1497 1499 1500 1502 1503 1503 1504 1504 1504 1505 1505 1505 1505 1505 1504 1503 1503 1503 1502 1502 1502 1501 1501 1500 1499 1498 1497 1495 1493 1491 1488 1486 1483 1481 1478 1474 1470 1465
1486 1487 1489 1491 1492 1494 1496 1497 1499 1499 1500 1501 1501 1501 1501 1501 1502 1501 1501 1501 1500 1500 1499 1498 1498 1498 1497 1497 1496 1495 1494 1493 1492 1490 1487 1485 1483 1480 1477 1474 1471 1468 1463
1483 1485 1486 1488 1489 1491 1493 1494 1495 1496 1497 1497 1498 1498 1498 1498 1498 1498 1497 1497 1496 1496 1496 1495 1494 1494 1493 1493 1492 1491 1489 1488 1487 1485 1483 1481 1479 1477 1475 1472 1468 1464 1460
1481 1482 1484 1485 1486 1488 1489 1491 1492 1493 1494 1494 1495 1495 1494 1494 1494 1494 1494 1493 1493 1492 1492 1491 1491 1490 1490 1489 1488 1486 1485 1483 1482 1481 1479 1477 1475 1473 1471 1467 1464 1460 1455
1479 1480 1481 1483 1484 1485 1486 1488 1489 1490 1490 1491 1491 1491 1491 1491 1491 1491 1491 1490 1489 1488 1488 1487 1487 1486 1486 1485 1484 1483 1480 1478 1477 1476 1474 1473 1471 1469 1467 1464 1461 1457 1453
1477 1478 1479 1480 1481 1483 1484 1485 1486 1487 1487 1488 1488 1488 1488 1488 1487 1487 1487 1487 1486 1485 1484 1483 1483 1483 1482 1482 1481 1479 1477 1475 1473 1472 1470 1468 1466 1465 1463 1460 1458 1455 1451
1474 1475 1477 1478 1479 1480 1481 1482 1483 1484 1484 1484 1485 1485 1485 1485 1484 1484 1484 1484 1483 1482 1481 1480 1479 1479 1479 1477 1476 1475 1473 1472 1470 1467 1466 1464 1462 1460 1458 1456 1454 1451 1449
1472 1473 1474 1475 1477 1478 1479 1480 1480 1481 1482 1482 1482 1482 1482 1482 1481 1481 1481 1480 1479 1479 1477 1477 1476 1475 1474 1473 1472 1471 1469 1467 1466 1464 1462 1460 1458 1456 1454 1452 1450 1447 1445
1470 1471 1472 1473 1474 1476 1477 1478 1478 1479 1479 1479 1479 1479 1479 1479 1478 1478 1477 1477 1476 1475 1474 1473 1472 1471 1470 1469 1468 1467 1465 1464 1462 1460 1458 1457 1455 1453 1450 1448 1445 1443 1440
1468 1469 1470 1471 1472 1473 1475 1475 1476 1477 1477 1478 1477 1477 1476 1475 1475 1475 1474 1473 1472 1471 1470 1469 1468 1467 1466 1465 1464 1463 1461 1460 1458 1457 1455 1453 1451 1449 1447 1445 1442 1439 1437
1466 1467 1468 1469 1470 1471 1472 1473 1474 1475 1475 1475 1475 1475 1474 1474 1473 1472 1471 1470 1469 1468 1466 1465 1464 1463 1462 1461 1460 1459 1458 1456 1455 1453 1451 1450 1447 1445 1443 1441 1439 1437 1434
1464 1465 1466 1467 1468 1469 1470 1471 1471 1472 1473 1472 1472 1472 1471 1471 1470 1469 1468 1467 1466 1464 1463 1462 1461 1460 1459 1458 1456 1455 1454 1453 1451 1450 1448 1446 1445 1443 1441 1438 1436 1434 1432
1463 1463 1464 1465 1466 1467 1468 1469 1469 1469 1469 1469 1469 1469 1468 1468 1467 1466 1465 1464 1462 1461 1460 1459 1458 1457 1456 1454 1453 1452 1451 1449 1448 1447 1445 1443 1442 1440 1438 1436 1434 1432 1429
1461 1461 1462 1463 1465 1466 1466 1467 1467 1467 1467 1467 1467 1466 1466 1465 1464 1463 1462 1461 1460 1458 1457 1456 1455 1454 1452 1451 1450 1449 1448 1446 1445 1444 1442 1441 1439 1437 1436 1434 1432 1430 1428
1459 1460 1461 1462 1463 1464 1464 1465 1465 1465 1465 1465 1464 1464 1463 1462 1461 1461 1460 1459 1458 1456 1455 1454 1452 1451 1450 1448 1447 1446 1444 1443 1442 1441 1439 1438 1437 1435 1434 1432 1430 1428 1426
1457 1458 1459 1460 1461 1461 1462 1462 1463 1463 1463 1463 1462 1462 1461 1460 1459 1458 1457 1456 1455 1454 1453 1451 1450 1449 1447 1446 1444 1443 1442 1441 1439 1438 1437 1436 1435 1433 1432 1430 1428 1427 1424
1456 1457 1457 1458 1459 1459 1460 1460 1461 1461 1460 1460 1460 1460 1459 1458 1457 1456 1455 1454 1453 1452 1451 1449 1448 1446 1445 1444 1442 1441 1440 1438 1437 1436 1435 1434 1433 1431 1430 1428 1427 1425 1423
1454 1455 1456 1456 1457 1457 1458 1458 1458 1458 1458 1458 1457 1457 1456 1456 1455 1454 1453 1452 1451 1449 1448 1447 1445 1444 1443 1442 1441 1440 1438 1437 1436 1434 1433 1432 1431 1430 1428 1427 1425 1423 1421
1452 1453 1453 1454 1455 1455 1455 1456 1456 1456 1456 1455 1455 1454 1454 1453 1452 1451 1450 1449 1448 1447 1446 1445 1443 1442 1441 1440 1439 1438 1436 1435 1434 1433 1432 1431 1429 1428 1427 1425 1424 1422 1420
1450 1450 1451 1452 1452 1453 1453 1453 1453 1453 1453 1453 1452 1452 1451 1450 1449 1449 1448 1447 1446 1445 1444 1442 1441 1440 1439 1438 1437 1436 1434 1433 1432 1431 1430 1429 1428 1427 1426 1424 1422 1421 1419
1447 1448 1448 1449 1450 1450 1450 1451 1451 1451 1451 1450 1450 1449 1448 1447 1447 1446 1445 1444 1443 1442 1441 1440 1439 1438 1437 1436 1434 1433 1432 1431 1431 1430 1429 1428 1427 1425 1424 1423 1421 1419 1418